| time (UTC) | temp F | wind direction | speed knots | gust knots | rain 1hr in | rain 24hr in | rain mn in | humidity % | barometer mb |
| 20260506175918 | 57 | 258 | 8.7 | 9.6 | 0.00 | 0.18 | 0.18 | 44 | 4267.0 |
| 20260506175414 | 57 | 264 | 4.3 | 7.0 | 0.00 | 0.18 | 0.18 | 43 | 4267.0 |
| 20260506174911 | 56 | 328 | 7.0 | 7.8 | 0.00 | 0.18 | 0.18 | 46 | 4267.0 |
| 20260506174409 | 55 | 332 | 9.6 | 11.3 | 0.00 | 0.18 | 0.18 | 45 | 4267.2 |
| 20260506173906 | 56 | 355 | 10.4 | 11.3 | 0.00 | 0.18 | 0.18 | 46 | 4267.3 |
| 20260506173402 | 56 | 324 | 5.2 | 6.1 | 0.00 | 0.18 | 0.18 | 49 | 4267.1 |
| 20260506172859 | 55 | 337 | 9.6 | 12.2 | 0.00 | 0.18 | 0.18 | 44 | 4267.3 |
| 20260506172356 | 55 | 339 | 6.1 | 7.0 | 0.00 | 0.18 | 0.18 | 45 | 4267.5 |
| 20260506171853 | 56 | 276 | 7.0 | 8.7 | 0.00 | 0.18 | 0.18 | 49 | 4267.4 |
| 20260506171350 | 55 | 278 | 2.6 | 2.6 | 0.00 | 0.18 | 0.18 | 44 | 4267.4 |
| 20260506170848 | 55 | 335 | 7.8 | 8.7 | 0.00 | 0.18 | 0.18 | 50 | 4267.4 |
| 20260506170344 | 55 | 258 | 4.3 | 5.2 | 0.00 | 0.18 | 0.18 | 43 | 4267.5 |
| 20260506165843 | 55 | 348 | 13.9 | 14.8 | 0.00 | 0.18 | 0.18 | 45 | 4267.7 |
| 20260506165341 | 56 | 343 | 8.7 | 9.6 | 0.00 | 0.18 | 0.18 | 48 | 4267.7 |
| 20260506164837 | 55 | 277 | 3.5 | 5.2 | 0.00 | 0.18 | 0.18 | 43 | 4267.8 |
| 20260506164334 | 55 | 327 | 6.1 | 7.8 | 0.00 | 0.18 | 0.18 | 44 | 4267.7 |
| 20260506163831 | 56 | 331 | 7.0 | 8.7 | 0.00 | 0.18 | 0.18 | 47 | 4267.7 |
| 20260506163326 | 55 | 263 | 7.0 | 9.6 | 0.00 | 0.18 | 0.18 | 48 | 4267.7 |
| 20260506162822 | 55 | 271 | 7.8 | 7.8 | 0.00 | 0.18 | 0.18 | 49 | 4267.6 |
| 20260506162320 | 55 | 314 | 8.7 | 9.6 | 0.00 | 0.18 | 0.18 | 47 | 4267.4 |
| 20260506161817 | 55 | 302 | 5.2 | 6.1 | 0.00 | 0.18 | 0.18 | 48 | 4267.5 |
| 20260506161314 | 55 | 259 | 7.0 | 7.8 | 0.00 | 0.18 | 0.18 | 46 | 4267.5 |
| 20260506160812 | 55 | 332 | 5.2 | 6.1 | 0.00 | 0.18 | 0.18 | 48 | 4267.4 |
| 20260506160308 | 55 | 301 | 7.0 | 7.8 | 0.00 | 0.18 | 0.18 | 52 | 4267.3 |
| 20260506155807 | 54 | 343 | 9.6 | 11.3 | 0.00 | 0.18 | 0.18 | 52 | 4267.8 |
| 20260506155305 | 54 | 348 | 6.1 | 7.8 | 0.00 | 0.18 | 0.18 | 52 | 4267.7 |
| 20260506153416 | 53 | 338 | 8.7 | 9.6 | 0.00 | 0.18 | 0.18 | 46 | 4267.1 |
| 20260506152913 | 53 | 300 | 6.1 | 7.8 | 0.00 | 0.18 | 0.18 | 48 | 4267.2 |
| 20260506152410 | 55 | 339 | 6.1 | 8.7 | 0.00 | 0.18 | 0.18 | 53 | 4267.1 |
| 20260506151909 | 53 | 326 | 7.8 | 8.7 | 0.00 | 0.18 | 0.18 | 51 | 4267.1 |
| 20260506151405 | 53 | 349 | 6.1 | 9.6 | 0.00 | 0.18 | 0.18 | 47 | 4267.1 |
| 20260506150903 | 54 | 327 | 9.6 | 11.3 | 0.00 | 0.18 | 0.18 | 59 | 4267.2 |
| 20260506150359 | 53 | 340 | 6.1 | 8.7 | 0.00 | 0.18 | 0.18 | 53 | 4267.1 |
| 20260506145855 | 53 | 341 | 9.6 | 9.6 | 0.00 | 0.18 | 0.18 | 53 | 4266.9 |
| 20260506145352 | 53 | 326 | 8.7 | 9.6 | 0.00 | 0.18 | 0.18 | 54 | 4266.8 |
| 20260506144849 | 52 | 339 | 11.3 | 13.0 | 0.00 | 0.18 | 0.18 | 52 | 4266.7 |
| 20260506144346 | 52 | 337 | 7.0 | 7.0 | 0.00 | 0.18 | 0.18 | 56 | 4266.8 |
| 20260506143844 | 53 | 338 | 13.0 | 14.8 | 0.00 | 0.18 | 0.18 | 55 | 4266.4 |
| 20260506143341 | 52 | 313 | 7.0 | 7.8 | 0.00 | 0.18 | 0.18 | 56 | 4266.5 |
| 20260506142839 | 52 | 327 | 6.1 | 7.0 | 0.00 | 0.18 | 0.18 | 57 | 4266.5 |
| 20260506142337 | 52 | 334 | 9.6 | 11.3 | 0.00 | 0.18 | 0.18 | 56 | 4266.4 |
| 20260506141835 | 51 | 335 | 10.4 | 12.2 | 0.00 | 0.18 | 0.18 | 59 | 4266.4 |
| 20260506141333 | 51 | 348 | 9.6 | 12.2 | 0.00 | 0.18 | 0.18 | 62 | 4266.3 |
| 20260506140831 | 51 | 332 | 9.6 | 12.2 | 0.00 | 0.18 | 0.18 | 62 | 4266.5 |
| 20260506140327 | 51 | 343 | 7.8 | 8.7 | 0.00 | 0.18 | 0.18 | 60 | 4266.4 |
| 20260506135824 | 51 | 348 | 7.8 | 8.7 | 0.00 | 0.18 | 0.18 | 59 | 4266.3 |
| 20260506135321 | 50 | 324 | 9.6 | 11.3 | 0.00 | 0.18 | 0.18 | 62 | 4266.3 |
| 20260506134817 | 50 | 330 | 8.7 | 11.3 | 0.00 | 0.18 | 0.18 | 65 | 4266.5 |
| 20260506134314 | 50 | 344 | 8.7 | 9.6 | 0.00 | 0.18 | 0.18 | 67 | 4266.5 |
| 20260506133811 | 50 | 341 | 10.4 | 12.2 | 0.00 | 0.18 | 0.18 | 65 | 4266.4 |
| 20260506133307 | 50 | 331 | 10.4 | 11.3 | 0.00 | 0.18 | 0.18 | 66 | 4266.4 |
| 20260506132804 | 49 | 340 | 8.7 | 9.6 | 0.00 | 0.18 | 0.18 | 68 | 4266.1 |
| 20260506132301 | 49 | 330 | 7.8 | 8.7 | 0.00 | 0.18 | 0.18 | 69 | 4266.2 |
| 20260506131759 | 49 | 328 | 7.8 | 7.8 | 0.00 | 0.18 | 0.18 | 71 | 4265.8 |
| 20260506131255 | 49 | 329 | 7.8 | 8.7 | 0.00 | 0.18 | 0.18 | 72 | 4265.8 |
| 20260506130752 | 49 | 337 | 8.7 | 9.6 | 0.00 | 0.18 | 0.18 | 70 | 4265.9 |
| 20260506130249 | 48 | 322 | 8.7 | 8.7 | 0.00 | 0.18 | 0.18 | 73 | 4265.9 |
| 20260506125747 | 48 | 328 | 7.8 | 7.8 | 0.00 | 0.18 | 0.18 | 73 | 4265.7 |
| 20260506125245 | 48 | 322 | 7.0 | 7.8 | 0.00 | 0.18 | 0.18 | 74 | 4265.7 |
| 20260506124743 | 48 | 329 | 7.8 | 8.7 | 0.00 | 0.18 | 0.18 | 75 | 4265.5 |
| 20260506124240 | 48 | 300 | 4.3 | 5.2 | 0.00 | 0.18 | 0.18 | 78 | 4265.9 |
| 20260506123737 | 47 | 337 | 7.0 | 8.7 | 0.00 | 0.18 | 0.18 | 79 | 4265.7 |
| 20260506123237 | 47 | 292 | 4.3 | 6.1 | 0.00 | 0.18 | 0.18 | 79 | 4265.8 |
| 20260506122732 | 47 | 297 | 5.2 | 6.1 | 0.00 | 0.18 | 0.18 | 80 | 4265.7 |
| 20260506122230 | 46 | 294 | 5.2 | 6.1 | 0.00 | 0.18 | 0.18 | 80 | 4265.5 |
| 20260506121728 | 46 | 288 | 2.6 | 6.1 | 0.00 | 0.18 | 0.18 | 81 | 4265.4 |
| 20260506121225 | 45 | 295 | 0.9 | 1.7 | 0.00 | 0.18 | 0.18 | 82 | 4265.5 |
| 20260506120722 | 45 | 288 | 4.3 | 4.3 | 0.00 | 0.18 | 0.18 | 82 | 4265.3 |
| 20260506120219 | 45 | 283 | 0.9 | 1.7 | 0.00 | 0.18 | 0.18 | 82 | 4265.1 |
| 20260506115717 | 45 | 275 | 1.7 | 4.3 | 0.00 | 0.18 | 0.18 | 82 | 4265.3 |
| 20260506115215 | 45 | 277 | 0.0 | 0.0 | 0.00 | 0.18 | 0.18 | 82 | 4265.3 |
| 20260506114712 | 45 | 284 | 0.0 | 0.0 | 0.00 | 0.18 | 0.18 | 82 | 4265.2 |
| 20260506114210 | 45 | 269 | 0.0 | 0.9 | 0.00 | 0.18 | 0.18 | 83 | 4265.0 |
| 20260506113708 | 45 | 255 | 0.0 | 0.9 | 0.00 | 0.18 | 0.18 | 83 | 4265.2 |
| 20260506113205 | 45 | 271 | 0.0 | 0.0 | 0.00 | 0.18 | 0.18 | 83 | 4264.9 |
| 20260506112701 | 45 | 278 | 0.9 | 1.7 | 0.00 | 0.18 | 0.18 | 83 | 4265.0 |
| 20260506112159 | 44 | 247 | 0.0 | 0.0 | 0.00 | 0.18 | 0.18 | 83 | 4264.8 |
| 20260506111656 | 44 | 270 | 0.0 | 0.0 | 0.00 | 0.18 | 0.18 | 83 | 4264.9 |
| 20260506111154 | 44 | 252 | 0.0 | 0.0 | 0.00 | 0.18 | 0.18 | 83 | 4264.8 |
| 20260506110651 | 44 | 234 | 0.9 | 1.7 | 0.00 | 0.18 | 0.18 | 83 | 4264.8 |
| 20260506110149 | 44 | 267 | 0.9 | 5.2 | 0.00 | 0.18 | 0.18 | 83 | 4264.8 |
| 20260506105645 | 44 | 236 | 0.0 | 0.0 | 0.00 | 0.18 | 0.18 | 83 | 4264.5 |
| 20260506105142 | 44 | 284 | 3.5 | 5.2 | 0.00 | 0.18 | 0.18 | 83 | 4264.6 |
| 20260506104640 | 44 | 272 | 0.0 | 0.0 | 0.00 | 0.18 | 0.18 | 84 | 4264.3 |
| 20260506104138 | 44 | 252 | 2.6 | 2.6 | 0.00 | 0.18 | 0.18 | 84 | 4264.1 |
| 20260506103635 | 44 | 282 | 0.0 | 0.0 | 0.00 | 0.18 | 0.18 | 84 | 4264.0 |
| 20260506103131 | 44 | 293 | 0.0 | 0.0 | 0.00 | 0.18 | 0.18 | 84 | 4263.7 |
| 20260506102630 | 44 | 263 | 0.9 | 1.7 | 0.00 | 0.18 | 0.18 | 84 | 4263.9 |
| 20260506102127 | 44 | 300 | 0.0 | 0.0 | 0.00 | 0.18 | 0.18 | 84 | 4263.6 |
| 20260506101623 | 44 | 285 | 0.0 | 0.0 | 0.00 | 0.18 | 0.18 | 84 | 4263.7 |
| 20260506101120 | 44 | 298 | 0.0 | 0.9 | 0.00 | 0.18 | 0.18 | 84 | 4263.9 |
| 20260506100619 | 44 | 268 | 0.9 | 2.6 | 0.00 | 0.18 | 0.18 | 84 | 4263.9 |
| 20260506100116 | 44 | 270 | 0.9 | 1.7 | 0.00 | 0.18 | 0.18 | 84 | 4263.6 |
| 20260506095615 | 44 | 274 | 0.0 | 0.9 | 0.00 | 0.18 | 0.18 | 84 | 4263.9 |
| 20260506095111 | 44 | 256 | 0.0 | 0.0 | 0.00 | 0.18 | 0.18 | 84 | 4263.6 |
| 20260506094609 | 44 | 283 | 0.0 | 0.0 | 0.00 | 0.18 | 0.18 | 84 | 4263.9 |
| 20260506094106 | 44 | 244 | 0.0 | 0.0 | 0.00 | 0.18 | 0.18 | 84 | 4264.0 |
| 20260506093605 | 44 | 259 | 0.0 | 0.0 | 0.00 | 0.18 | 0.18 | 84 | 4263.9 |
| 20260506093102 | 44 | 285 | 0.0 | 0.0 | 0.00 | 0.18 | 0.18 | 84 | 4263.6 |
| 20260506092559 | 44 | 264 | 0.0 | 0.0 | 0.00 | 0.18 | 0.18 | 84 | 4263.9 |
| 20260506092056 | 44 | 280 | 0.0 | 0.0 | 0.00 | 0.18 | 0.18 | 84 | 4264.1 |
| 20260506091554 | 43 | 283 | 0.0 | 0.0 | 0.00 | 0.18 | 0.18 | 84 | 4264.0 |
| 20260506091051 | 43 | 253 | 0.0 | 0.0 | 0.00 | 0.18 | 0.18 | 84 | 4264.1 |
| 20260506090549 | 44 | 251 | 0.0 | 0.0 | 0.00 | 0.18 | 0.18 | 84 | 4264.2 |
| 20260506090045 | 44 | 247 | 0.0 | 0.0 | 0.00 | 0.18 | 0.18 | 85 | 4264.1 |
| 20260506085542 | 44 | 271 | 1.7 | 1.7 | 0.00 | 0.18 | 0.18 | 85 | 4264.4 |
| 20260506085038 | 44 | 285 | 0.0 | 0.0 | 0.00 | 0.18 | 0.18 | 85 | 4264.3 |
| 20260506084536 | 44 | 286 | 0.0 | 0.0 | 0.00 | 0.18 | 0.18 | 85 | 4263.6 |
| 20260506084031 | 44 | 286 | 0.0 | 0.0 | 0.00 | 0.18 | 0.18 | 84 | 4263.9 |
| 20260506083529 | 44 | 277 | 0.0 | 0.0 | 0.07 | 0.18 | 0.18 | 84 | 4264.2 |
| 20260506083026 | 44 | 286 | 0.0 | 0.0 | 0.07 | 0.18 | 0.18 | 84 | 4264.0 |
| 20260506082523 | 44 | 252 | 0.0 | 0.0 | 0.00 | 0.17 | 0.17 | 84 | 4264.2 |
| 20260506082019 | 44 | 278 | 0.0 | 0.0 | 0.00 | 0.17 | 0.17 | 84 | 4264.3 |
| 20260506081517 | 44 | 277 | 0.0 | 0.0 | 0.00 | 0.17 | 0.17 | 84 | 4264.2 |
| 20260506081014 | 44 | 268 | 0.0 | 0.0 | 0.00 | 0.17 | 0.17 | 84 | 4264.2 |
| 20260506080512 | 44 | 288 | 0.0 | 0.0 | 0.07 | 0.17 | 0.17 | 84 | 4263.7 |
| 20260506073455 | 44 | 312 | 0.0 | 0.0 | 0.12 | 0.15 | 0.15 | 84 | 4264.0 |
| 20260506072952 | 44 | 310 | 0.0 | 0.0 | 0.12 | 0.14 | 0.14 | 84 | 4263.6 |
| 20260506072449 | 45 | 309 | 0.0 | 0.0 | 0.12 | 0.13 | 0.13 | 84 | 4263.7 |
| 20260506071947 | 45 | 279 | 0.0 | 0.9 | 0.12 | 0.12 | 0.12 | 84 | 4264.0 |
| 20260506071445 | 45 | 285 | 0.0 | 0.9 | 0.07 | 0.11 | 0.11 | 84 | 4264.3 |
| 20260506070941 | 45 | 279 | 0.0 | 0.0 | 0.00 | 0.10 | 0.10 | 84 | 4264.3 |
| 20260506070439 | 45 | 292 | 0.0 | 0.0 | 0.05 | 0.10 | 0.10 | 84 | 4264.4 |
| 20260506062416 | 45 | 323 | 0.0 | 0.0 | 0.00 | 0.07 | 0.07 | 84 | 4263.6 |
| 20260506061912 | 45 | 321 | 0.0 | 0.0 | 0.07 | 0.07 | 0.07 | 84 | 4264.0 |
| 20260506061409 | 46 | 311 | 0.0 | 0.0 | 0.07 | 0.07 | 0.07 | 84 | 4264.6 |
| 20260506060907 | 46 | 317 | 0.0 | 0.0 | 0.00 | 0.06 | 0.06 | 84 | 4264.3 |
| 20260506060404 | 46 | 324 | 3.5 | 4.3 | 0.00 | 0.06 | 0.06 | 84 | 4264.3 |
| 20260506051336 | 45 | 316 | 0.0 | 0.9 | 0.07 | 0.04 | 0.04 | 84 | 4264.1 |
| 20260506050834 | 46 | 325 | 0.0 | 0.0 | 0.00 | 0.03 | 0.03 | 85 | 4264.4 |
| 20260506050331 | 46 | 298 | 2.6 | 6.1 | 0.05 | 0.03 | 0.03 | 85 | 4264.3 |
| 20260506044821 | 46 | 317 | 0.0 | 0.0 | 0.00 | 0.02 | 0.02 | 85 | 4264.1 |
| 20260506044320 | 46 | 333 | 0.0 | 0.0 | 0.07 | 0.02 | 0.02 | 85 | 4264.0 |
| 20260506043816 | 46 | 309 | 0.9 | 2.6 | 0.07 | 0.02 | 0.02 | 85 | 4264.0 |
| 20260506043314 | 48 | 274 | 0.0 | 0.0 | 0.07 | 0.02 | 0.02 | 85 | 4264.1 |
| 20260506042812 | 48 | 290 | 0.0 | 0.0 | 0.05 | 0.01 | 0.01 | 85 | 4263.7 |
| 20260506042311 | 48 | 280 | 0.0 | 0.0 | 0.05 | 0.01 | 0.01 | 85 | 4264.1 |
| 20260506041809 | 48 | 272 | 0.0 | 0.0 | 0.00 | 0.00 | 0.00 | 85 | 4263.7 |
| 20260506041305 | 48 | 262 | 0.0 | 0.0 | 0.00 | 0.00 | 0.00 | 85 | 4264.1 |
| 20260506040803 | 48 | 240 | 0.0 | 0.0 | 0.00 | 0.00 | 0.00 | 85 | 4263.6 |
| 20260506040300 | 48 | 262 | 0.0 | 0.0 | 0.07 | 0.00 | 0.00 | 86 | 4263.7 |
| 20260506035756 | 48 | 275 | 0.0 | 0.0 | 0.07 | 0.59 | 0.59 | 86 | 4264.0 |
| 20260506035253 | 48 | 271 | 0.0 | 0.0 | 0.00 | 0.58 | 0.58 | 86 | 4264.0 |
| 20260506034750 | 48 | 270 | 0.0 | 0.0 | 0.00 | 0.58 | 0.58 | 86 | 4264.2 |
| 20260506034248 | 48 | 262 | 0.0 | 0.0 | 0.00 | 0.58 | 0.58 | 86 | 4264.1 |
| 20260506033744 | 48 | 272 | 0.0 | 0.0 | 0.00 | 0.58 | 0.58 | 86 | 4263.9 |
| 20260506033242 | 48 | 257 | 0.0 | 0.0 | 0.00 | 0.58 | 0.58 | 86 | 4263.9 |
| 20260506032738 | 48 | 280 | 0.0 | 0.0 | 0.00 | 0.58 | 0.58 | 86 | 4264.1 |
| 20260506032235 | 48 | 279 | 0.0 | 0.0 | 0.00 | 0.58 | 0.58 | 86 | 4263.9 |
| 20260506031726 | 48 | 285 | 0.0 | 0.0 | 0.00 | 0.58 | 0.58 | 86 | 4264.1 |
| 20260506031224 | 48 | 284 | 0.0 | 0.0 | 0.05 | 0.58 | 0.58 | 86 | 4264.2 |
| 20260506030722 | 48 | 265 | 0.0 | 0.0 | 0.05 | 0.58 | 0.58 | 86 | 4264.2 |
| 20260506030219 | 48 | 283 | 0.0 | 0.0 | 0.00 | 0.57 | 0.57 | 86 | 4264.1 |
| 20260506025716 | 48 | 291 | 0.0 | 0.0 | 0.00 | 0.57 | 0.57 | 86 | 4264.3 |
| 20260506025212 | 48 | 293 | 0.0 | 0.0 | 0.07 | 0.57 | 0.57 | 86 | 4264.2 |
| 20260506024709 | 48 | 292 | 0.0 | 0.0 | 0.07 | 0.57 | 0.57 | 86 | 4264.1 |
| 20260506024206 | 48 | 286 | 0.0 | 0.0 | 0.00 | 0.56 | 0.56 | 86 | 4264.4 |
| 20260506023702 | 48 | 280 | 0.0 | 0.0 | 0.05 | 0.56 | 0.56 | 86 | 4264.1 |
| 20260506023200 | 48 | 291 | 0.0 | 0.0 | 0.05 | 0.56 | 0.56 | 86 | 4264.2 |
| 20260506022656 | 48 | 293 | 0.0 | 0.0 | 0.00 | 0.55 | 0.55 | 86 | 4264.0 |
| 20260506022154 | 48 | 292 | 0.0 | 0.0 | 0.07 | 0.55 | 0.55 | 85 | 4264.0 |
| 20260506021652 | 48 | 283 | 0.0 | 0.0 | 0.07 | 0.55 | 0.55 | 85 | 4264.1 |
| 20260506021149 | 48 | 281 | 0.0 | 0.0 | 0.00 | 0.54 | 0.54 | 85 | 4264.1 |
| 20260506020646 | 48 | 276 | 0.0 | 0.0 | 0.05 | 0.54 | 0.54 | 85 | 4264.3 |
| 20260506020143 | 48 | 250 | 0.0 | 0.0 | 0.12 | 0.54 | 0.54 | 85 | 4264.1 |
| 20260506015640 | 48 | 260 | 0.0 | 0.0 | 0.07 | 0.53 | 0.53 | 85 | 4264.2 |
| 20260506015137 | 48 | 280 | 0.0 | 0.0 | 0.05 | 0.52 | 0.52 | 85 | 4264.1 |
| 20260506014635 | 48 | 229 | 0.0 | 0.0 | 0.05 | 0.52 | 0.52 | 85 | 4263.7 |
| 20260506014130 | 48 | 259 | 0.0 | 0.0 | 0.07 | 0.51 | 0.51 | 85 | 4264.1 |
| 20260506013629 | 48 | 259 | 0.0 | 0.0 | 0.14 | 0.51 | 0.51 | 85 | 4263.9 |
| 20260506013125 | 48 | 272 | 0.0 | 0.0 | 0.07 | 0.50 | 0.50 | 85 | 4263.9 |
| 20260506012622 | 48 | 270 | 0.0 | 0.0 | 0.12 | 0.50 | 0.50 | 85 | 4263.6 |
| 20260506012118 | 48 | 280 | 0.0 | 0.0 | 0.12 | 0.49 | 0.49 | 85 | 4263.5 |
| 20260506011616 | 48 | 280 | 2.6 | 2.6 | 0.07 | 0.48 | 0.48 | 85 | 4263.6 |
| 20260506011112 | 48 | 265 | 0.0 | 0.0 | 0.05 | 0.47 | 0.47 | 85 | 4263.6 |
| 20260506010612 | 48 | 281 | 0.0 | 0.0 | 0.05 | 0.47 | 0.47 | 85 | 4263.7 |
| 20260506010108 | 48 | 262 | 0.0 | 0.0 | 0.00 | 0.46 | 0.46 | 85 | 4263.6 |
| 20260506005605 | 48 | 264 | 0.0 | 0.0 | 0.07 | 0.46 | 0.46 | 85 | 4263.4 |
| 20260506005101 | 48 | 274 | 0.0 | 0.0 | 0.07 | 0.46 | 0.46 | 85 | 4263.4 |
| 20260506004558 | 48 | 244 | 0.0 | 0.0 | 0.00 | 0.45 | 0.45 | 85 | 4263.5 |
| 20260506004055 | 48 | 267 | 0.0 | 0.0 | 0.05 | 0.45 | 0.45 | 85 | 4263.5 |
| 20260506003551 | 48 | 281 | 0.0 | 0.0 | 0.05 | 0.45 | 0.45 | 85 | 4263.2 |
| 20260506003048 | 48 | 273 | 0.0 | 0.0 | 0.00 | 0.44 | 0.44 | 84 | 4263.3 |
| 20260506002543 | 48 | 283 | 0.0 | 0.0 | 0.07 | 0.44 | 0.44 | 84 | 4263.3 |
| 20260506002040 | 48 | 279 | 0.0 | 0.0 | 0.12 | 0.44 | 0.44 | 84 | 4263.4 |
| 20260506001536 | 48 | 284 | 0.0 | 0.0 | 0.12 | 0.43 | 0.43 | 84 | 4263.2 |
| 20260506001033 | 48 | 288 | 0.0 | 0.0 | 0.12 | 0.42 | 0.42 | 84 | 4263.4 |
| 20260506000531 | 48 | 283 | 0.0 | 0.0 | 0.19 | 0.41 | 0.41 | 84 | 4263.3 |
| 20260506000028 | 48 | 289 | 0.0 | 0.0 | 0.19 | 0.40 | 0.40 | 84 | 4263.4 |
| 20260505235526 | 48 | 285 | 0.0 | 0.0 | 0.12 | 0.38 | 0.38 | 84 | 4263.5 |
| 20260505235022 | 48 | 277 | 0.0 | 0.0 | 0.12 | 0.37 | 0.37 | 84 | 4263.3 |
| 20260505234520 | 48 | 275 | 0.0 | 0.9 | 0.17 | 0.36 | 0.36 | 83 | 4263.3 |
| 20260505234016 | 49 | 289 | 0.0 | 0.0 | 0.19 | 0.35 | 0.35 | 83 | 4263.2 |
| 20260505233514 | 49 | 252 | 0.0 | 0.0 | 0.07 | 0.33 | 0.33 | 83 | 4263.2 |
| 20260505233011 | 49 | 278 | 0.0 | 0.0 | 0.05 | 0.32 | 0.32 | 83 | 4263.4 |
| 20260505232509 | 49 | 280 | 0.0 | 0.0 | 0.12 | 0.32 | 0.32 | 83 | 4263.2 |
| 20260505232006 | 49 | 279 | 0.0 | 0.0 | 0.07 | 0.31 | 0.31 | 83 | 4263.3 |
| 20260505231503 | 49 | 263 | 0.0 | 0.0 | 0.12 | 0.31 | 0.31 | 83 | 4263.4 |
| 20260505231002 | 49 | 283 | 0.0 | 0.0 | 0.05 | 0.30 | 0.30 | 82 | 4263.3 |
| 20260505230459 | 49 | 284 | 0.0 | 0.0 | 0.00 | 0.29 | 0.29 | 82 | 4263.2 |
| 20260505225955 | 49 | 292 | 0.0 | 0.0 | 0.00 | 0.29 | 0.29 | 82 | 4263.2 |
| 20260505225452 | 49 | 297 | 0.0 | 0.0 | 0.00 | 0.29 | 0.29 | 82 | 4263.0 |
| 20260505224948 | 49 | 289 | 0.0 | 0.0 | 0.00 | 0.29 | 0.29 | 82 | 4263.2 |
| 20260505224445 | 49 | 313 | 0.0 | 0.0 | 0.00 | 0.29 | 0.29 | 82 | 4263.0 |
| 20260505223942 | 49 | 314 | 0.0 | 0.0 | 0.00 | 0.29 | 0.29 | 82 | 4262.8 |
| 20260505223439 | 49 | 317 | 0.0 | 0.9 | 0.00 | 0.29 | 0.29 | 82 | 4262.9 |
| 20260505222935 | 50 | 322 | 0.0 | 0.0 | 0.00 | 0.29 | 0.29 | 82 | 4263.1 |
| 20260505222432 | 50 | 324 | 0.0 | 0.0 | 0.00 | 0.29 | 0.29 | 83 | 4263.1 |
| 20260505221928 | 50 | 320 | 3.5 | 4.3 | 0.00 | 0.29 | 0.29 | 83 | 4263.0 |
| 20260505221425 | 49 | 322 | 0.0 | 0.0 | 0.00 | 0.29 | 0.29 | 83 | 4263.2 |
| 20260505220922 | 49 | 337 | 0.0 | 0.0 | 0.00 | 0.29 | 0.29 | 83 | 4262.9 |
| 20260505220419 | 49 | 325 | 0.9 | 1.7 | 0.07 | 0.29 | 0.29 | 83 | 4263.2 |
| 20260505215917 | 49 | 318 | 0.0 | 0.0 | 0.07 | 0.29 | 0.29 | 83 | 4262.9 |
| 20260505215415 | 50 | 325 | 4.3 | 5.2 | 0.00 | 0.28 | 0.28 | 83 | 4263.0 |
| 20260505214912 | 50 | 322 | 6.1 | 7.0 | 0.05 | 0.28 | 0.28 | 83 | 4262.8 |
| 20260505214410 | 49 | 335 | 5.2 | 7.0 | 0.12 | 0.28 | 0.28 | 83 | 4262.7 |
| 20260505213907 | 49 | 305 | 0.0 | 0.0 | 0.14 | 0.27 | 0.27 | 83 | 4263.1 |
| 20260505213405 | 50 | 317 | 0.0 | 0.0 | 0.07 | 0.26 | 0.26 | 83 | 4262.8 |
| 20260505212900 | 50 | 331 | 4.3 | 5.2 | 0.05 | 0.25 | 0.25 | 83 | 4262.9 |
| 20260505212358 | 49 | 326 | 7.0 | 7.8 | 0.05 | 0.25 | 0.25 | 83 | 4262.7 |
| 20260505211854 | 50 | 334 | 6.1 | 7.0 | 0.07 | 0.24 | 0.24 | 83 | 4262.8 |
| 20260505211351 | 50 | 331 | 7.8 | 7.8 | 0.07 | 0.24 | 0.24 | 83 | 4262.7 |
| 20260505210848 | 49 | 320 | 7.8 | 7.8 | 0.07 | 0.24 | 0.24 | 83 | 4262.8 |
| 20260505210345 | 50 | 329 | 8.7 | 8.7 | 0.05 | 0.23 | 0.23 | 83 | 4262.8 |
| 20260505205841 | 51 | 330 | 8.7 | 9.6 | 0.07 | 0.22 | 0.22 | 83 | 4263.0 |
| 20260505205340 | 51 | 336 | 6.1 | 7.0 | 0.07 | 0.22 | 0.22 | 83 | 4262.8 |
| 20260505204836 | 50 | 328 | 6.1 | 7.0 | 0.05 | 0.21 | 0.21 | 83 | 4262.8 |
| 20260505204334 | 50 | 319 | 6.1 | 7.0 | 0.12 | 0.21 | 0.21 | 83 | 4262.8 |
| 20260505203831 | 51 | 331 | 7.8 | 7.8 | 0.12 | 0.20 | 0.20 | 83 | 4262.7 |
| 20260505203328 | 51 | 327 | 13.0 | 17.4 | 0.12 | 0.19 | 0.19 | 82 | 4262.8 |
| 20260505202824 | 51 | 337 | 7.0 | 7.8 | 0.07 | 0.18 | 0.18 | 82 | 4262.7 |
| 20260505202320 | 51 | 331 | 5.2 | 7.0 | 0.12 | 0.18 | 0.18 | 82 | 4262.6 |
| 20260505201817 | 51 | 315 | 8.7 | 9.6 | 0.05 | 0.17 | 0.17 | 82 | 4262.8 |
| 20260505201315 | 51 | 324 | 4.3 | 5.2 | 0.07 | 0.16 | 0.16 | 82 | 4262.8 |
| 20260505200813 | 51 | 325 | 7.8 | 8.7 | 0.07 | 0.16 | 0.16 | 82 | 4262.8 |
| 20260505200309 | 52 | 331 | 6.1 | 7.0 | 0.05 | 0.15 | 0.15 | 82 | 4262.9 |
| 20260505195805 | 51 | 311 | 4.3 | 5.2 | 0.05 | 0.15 | 0.15 | 82 | 4263.2 |
| 20260505195305 | 52 | 285 | 6.1 | 7.8 | 0.00 | 0.14 | 0.14 | 82 | 4263.0 |
| 20260505194800 | 52 | 290 | 3.5 | 4.3 | 0.00 | 0.14 | 0.14 | 83 | 4262.8 |
| 20260505194257 | 52 | 264 | 2.6 | 4.3 | 0.00 | 0.14 | 0.14 | 82 | 4263.0 |
| 20260505193756 | 52 | 249 | 6.1 | 7.8 | 0.07 | 0.14 | 0.14 | 82 | 4263.2 |
| 20260505193255 | 52 | 265 | 3.5 | 4.3 | 0.07 | 0.14 | 0.14 | 83 | 4263.4 |
| 20260505192753 | 52 | 254 | 4.3 | 5.2 | 0.00 | 0.13 | 0.13 | 83 | 4263.2 |
| 20260505192250 | 52 | 230 | 4.3 | 5.2 | 0.00 | 0.13 | 0.13 | 83 | 4263.2 |
| 20260505191748 | 52 | 238 | 3.5 | 5.2 | 0.07 | 0.13 | 0.13 | 83 | 4263.4 |
| 20260505191247 | 51 | 254 | 4.3 | 6.1 | 0.07 | 0.13 | 0.13 | 82 | 4263.1 |
| 20260505190742 | 51 | 242 | 6.1 | 7.0 | 0.05 | 0.12 | 0.12 | 82 | 4263.4 |
| 20260505190237 | 51 | 231 | 0.9 | 4.3 | 0.05 | 0.12 | 0.12 | 82 | 4263.4 |
| 20260505185734 | 51 | 247 | 3.5 | 5.2 | 0.00 | 0.11 | 0.11 | 82 | 4263.5 |
| 20260505185231 | 52 | 231 | 7.0 | 7.8 | 0.07 | 0.11 | 0.11 | 82 | 4263.5 |
| 20260505184727 | 52 | 272 | 5.2 | 6.1 | 0.07 | 0.11 | 0.11 | 83 | 4263.5 |
| 20260505184225 | 53 | 253 | 0.0 | 1.7 | 0.05 | 0.10 | 0.10 | 83 | 4263.4 |
| 20260505183721 | 52 | 296 | 2.6 | 4.3 | 0.12 | 0.10 | 0.10 | 82 | 4262.7 |
| 20260505183219 | 52 | 255 | 5.2 | 6.1 | 0.12 | 0.09 | 0.09 | 82 | 4263.2 |
| 20260505182714 | 53 | 252 | 2.6 | 2.6 | 0.12 | 0.08 | 0.08 | 82 | 4262.9 |
| 20260505182212 | 53 | 242 | 2.6 | 2.6 | 0.12 | 0.07 | 0.07 | 81 | 4263.2 |
| 20260505181708 | 53 | 251 | 5.2 | 6.1 | 0.12 | 0.06 | 0.06 | 80 | 4263.0 |
| 20260505181206 | 53 | 230 | 3.5 | 6.1 | 0.07 | 0.05 | 0.05 | 80 | 4262.9 |
| 20260505180702 | 53 | 247 | 5.2 | 6.1 | 0.05 | 0.04 | 0.04 | 80 | 4262.9 |
| 20260505180159 | 53 | 277 | 2.6 | 4.3 | 0.12 | 0.04 | 0.04 | 79 | 4262.7 |